2022-03-15 00:03:01 r, 15.90m,0000000038Hz,0000012562c,0000000.027s, 010.3C,00002191
2022-03-15 00:12:58 r, 16.29m,0000000026Hz,0000018171c,0000000.039s, 009.9C,00002191
2022-03-15 00:22:58 r, 16.72m,0000000019Hz,0000026802c,0000000.058s, 009.9C,00002191
2022-03-15 00:33:01 r, 16.82m,0000000016Hz,0000029222c,0000000.063s, 009.9C,00002191
2022-03-15 00:42:58 r, 16.73m,0000000017Hz,0000026885c,0000000.058s, 009.9C,00002191
2022-03-15 00:52:58 r, 16.65m,0000000018Hz,0000025063c,0000000.054s, 009.9C,00002191
2022-03-15 01:02:59 r, 16.47m,0000000022Hz,0000021286c,0000000.046s, 009.9C,00002191
2022-03-15 01:12:58 r, 16.64m,0000000019Hz,0000024747c,0000000.054s, 009.9C,00002191
2022-03-15 01:22:58 r, 16.50m,0000000021Hz,0000022008c,0000000.048s, 009.9C,00002191
2022-03-15 01:32:59 r, 16.79m,0000000016Hz,0000028451c,0000000.062s, 010.3C,00002191
2022-03-15 01:42:58 r, 17.35m,0000000010Hz,0000047863c,0000000.104s, 010.3C,00002191
2022-03-15 01:52:58 r, 17.17m,0000000011Hz,0000040459c,0000000.088s, 010.3C,00002191
2022-03-15 02:02:59 r, 17.64m,0000000007Hz,0000061924c,0000000.134s, 010.3C,00002191
2022-03-15 02:12:58 r, 17.58m,0000000008Hz,0000058847c,0000000.128s, 010.3C,00002191
2022-03-15 02:22:58 r, 17.75m,0000000006Hz,0000068795c,0000000.149s, 010.3C,00002191
2022-03-15 02:33:01 r, 17.81m,0000000006Hz,0000073070c,0000000.159s, 010.3C,00002191
2022-03-15 02:42:58 r, 17.96m,0000000005Hz,0000083266c,0000000.181s, 010.3C,00002191
2022-03-15 02:52:58 r, 18.28m,0000000004Hz,0000111443c,0000000.242s, 010.6C,00002191
2022-03-15 03:02:59 r, 18.33m,0000000004Hz,0000116841c,0000000.254s, 010.3C,00002191
2022-03-15 03:12:58 r, 18.42m,0000000004Hz,0000127285c,0000000.276s, 010.3C,00002191
2022-03-15 03:22:58 r, 18.48m,0000000004Hz,0000134260c,0000000.291s, 010.3C,00002191
2022-03-15 03:32:59 r, 18.54m,0000000003Hz,0000142075c,0000000.308s, 010.3C,00002191
2022-03-15 03:42:58 r, 18.54m,0000000003Hz,0000141907c,0000000.308s, 010.3C,00002191
2022-03-15 03:52:58 r, 18.63m,0000000003Hz,0000154094c,0000000.334s, 010.3C,00002191
2022-03-15 04:03:00 r, 18.71m,0000000003Hz,0000165245c,0000000.359s, 010.3C,00002191
2022-03-15 04:12:58 r, 18.74m,0000000003Hz,0000170433c,0000000.370s, 010.3C,00002191
2022-03-15 04:22:58 r, 18.78m,0000000003Hz,0000176296c,0000000.383s, 010.3C,00002191
2022-03-15 04:33:01 r, 18.84m,0000000002Hz,0000186407c,0000000.405s, 010.6C,00002191
2022-03-15 04:42:59 r, 18.86m,0000000003Hz,0000190668c,0000000.414s, 010.6C,00002191
2022-03-15 04:52:58 r, 18.90m,0000000003Hz,0000197438c,0000000.428s, 010.6C,00002191
2022-03-15 05:03:01 r, 18.96m,0000000003Hz,0000208434c,0000000.452s, 010.6C,00002191
2022-03-15 05:12:59 r, 19.03m,0000000002Hz,0000222974c,0000000.484s, 010.3C,00002191
2022-03-15 05:22:58 r, 19.11m,0000000002Hz,0000239922c,0000000.521s, 010.3C,00002191
2022-03-15 05:32:59 r, 19.18m,0000000002Hz,0000254259c,0000000.552s, 010.3C,00002191
2022-03-15 05:43:00 r, 19.23m,0000000001Hz,0000268788c,0000000.583s, 010.3C,00002191
2022-03-15 05:52:58 r, 19.30m,0000000001Hz,0000285903c,0000000.620s, 009.9C,00002191
2022-03-15 06:03:00 r, 19.38m,0000000001Hz,0000307324c,0000000.667s, 009.9C,00002191
2022-03-15 06:12:59 r, 19.44m,0000000002Hz,0000325460c,0000000.706s, 009.9C,00002191
2022-03-15 06:22:58 r, 19.40m,0000000001Hz,0000315258c,0000000.684s, 009.3C,00002191
2022-03-15 06:32:59 r, 19.13m,0000000002Hz,0000244682c,0000000.531s, 009.0C,00002191
2022-03-15 06:43:01 r, 18.37m,0000000004Hz,0000121874c,0000000.264s, 008.7C,00002191
2022-03-15 06:52:58 r, 17.01m,0000000014Hz,0000034889c,0000000.076s, 008.3C,00002191
2022-03-15 07:03:01 r, 15.01m,0000000083Hz,0000005504c,0000000.012s, 008.3C,00002191
2022-03-15 07:12:59 r, 12.80m,0000000642Hz,0000000000c,0000000.000s, 008.0C,00002191
2022-03-15 07:22:58 r, 10.64m,0000004697Hz,0000000000c,0000000.000s, 008.0C,00002191
2022-03-15 07:33:01 r, 08.83m,0000024756Hz,0000000000c,0000000.000s, 007.7C,00002191
2022-03-15 07:42:59 r, 07.67m,0000072624Hz,0000000000c,0000000.000s, 007.7C,00002191
2022-03-15 07:52:58 r, 06.77m,0000166300Hz,0000000000c,0000000.000s, 007.7C,00002191
2022-03-15 08:02:59 r, 06.08m,0000312467Hz,0000000000c,0000000.000s, 007.7C,00002191
2022-03-15 08:13:00 r, 00.00m,0000406297Hz,0000000000c,0000000.000s, 008.0C,00002191
2022-03-15 08:22:58 r, 00.00m,0000598525Hz,0000000000c,0000000.000s, 008.3C,00002191
2022-03-15 08:33:00 r, 00.00m,0000598428Hz,0000000000c,0000000.000s, 008.7C,00002191
2022-03-15 08:42:59 r, 00.00m,0000598269Hz,0000000000c,0000000.000s, 009.0C,00002191
2022-03-15 08:52:58 r, 00.00m,0000598282Hz,0000000000c,0000000.000s, 009.3C,00002191
2022-03-15 09:02:59 r, 00.00m,0000598173Hz,0000000000c,0000000.000s, 010.3C,00002191
2022-03-15 09:13:01 r, 00.00m,0000598168Hz,0000000000c,0000000.000s, 011.9C,00002191
2022-03-15 09:22:58 r, 00.00m,0000597975Hz,0000000000c,0000000.000s, 012.5C,00002191
2022-03-15 09:33:01 r, 00.00m,0000597965Hz,0000000000c,0000000.000s, 013.2C,00002191
2022-03-15 09:42:59 r, 00.00m,0000597844Hz,0000000000c,0000000.000s, 013.8C,00002191
2022-03-15 09:52:58 r, 00.00m,0000597749Hz,0000000000c,0000000.000s, 015.1C,00002191
2022-03-15 10:03:01 r, 00.00m,0000597561Hz,0000000000c,0000000.000s, 016.1C,00002191
2022-03-15 10:12:59 r, 00.00m,0000597563Hz,0000000000c,0000000.000s, 016.4C,00002191
2022-03-15 10:22:58 r, 00.00m,0000597480Hz,0000000000c,0000000.000s, 017.0C,00002191
2022-03-15 10:32:59 r, 00.00m,0000597261Hz,0000000000c,0000000.000s, 018.0C,00002191
2022-03-15 10:43:01 r, 00.00m,0000597305Hz,0000000000c,0000000.000s, 018.6C,00002191
2022-03-15 10:52:58 r, 00.00m,0000597207Hz,0000000000c,0000000.000s, 019.6C,00002191
2022-03-15 11:02:58 r, 00.00m,0000596988Hz,0000000000c,0000000.000s, 020.6C,00002191
2022-03-15 11:13:01 r, 00.00m,0000596927Hz,0000000000c,0000000.000s, 021.9C,00002191
2022-03-15 11:22:58 r, 00.00m,0000596745Hz,0000000000c,0000000.000s, 023.2C,00002191
2022-03-15 11:32:58 r, 00.00m,0000596612Hz,0000000000c,0000000.000s, 024.8C,00002191
2022-03-15 11:42:59 r, 00.00m,0000596422Hz,0000000000c,0000000.000s, 025.4C,00002191
2022-03-15 11:52:58 r, 00.00m,0000596344Hz,0000000000c,0000000.000s, 026.4C,00002191
2022-03-15 12:03:01 r, 00.00m,0000596460Hz,0000000000c,0000000.000s, 026.4C,00002191
2022-03-15 12:12:59 r, 00.00m,0000596365Hz,0000000000c,0000000.000s, 026.1C,00002191
2022-03-15 12:22:58 r, 00.00m,0000596395Hz,0000000000c,0000000.000s, 026.1C,00002191
2022-03-15 12:32:59 r, 00.00m,0000596396Hz,0000000000c,0000000.000s, 026.4C,00002191
2022-03-15 12:43:00 r, 00.00m,0000596205Hz,0000000000c,0000000.000s, 027.3C,00002191
2022-03-15 12:52:58 r, 00.00m,0000596152Hz,0000000000c,0000000.000s, 028.3C,00002191
2022-03-15 13:02:58 r, 00.00m,0000596207Hz,0000000000c,0000000.000s, 028.0C,00002191
2022-03-15 13:13:01 r, 00.00m,0000596272Hz,0000000000c,0000000.000s, 027.0C,00002191
2022-03-15 13:22:58 r, 00.00m,0000596389Hz,0000000000c,0000000.000s, 025.7C,00002191
2022-03-15 13:33:00 r, 00.00m,0000596642Hz,0000000000c,0000000.000s, 024.4C,00002191
2022-03-15 13:42:59 r, 00.00m,0000596500Hz,0000000000c,0000000.000s, 024.4C,00002191
2022-03-15 13:52:58 r, 00.00m,0000596447Hz,0000000000c,0000000.000s, 025.4C,00002191
2022-03-15 14:03:01 r, 00.00m,0000596275Hz,0000000000c,0000000.000s, 026.7C,00002191
2022-03-15 14:12:59 r, 00.00m,0000596129Hz,0000000000c,0000000.000s, 028.3C,00002191
2022-03-15 14:22:58 r, 00.00m,0000596012Hz,0000000000c,0000000.000s, 029.0C,00002191
2022-03-15 14:33:01 r, 00.00m,0000596014Hz,0000000000c,0000000.000s, 029.3C,00002191
2022-03-15 14:42:59 r, 00.00m,0000596127Hz,0000000000c,0000000.000s, 028.3C,00002191
2022-03-15 14:52:58 r, 00.00m,0000596340Hz,0000000000c,0000000.000s, 027.3C,00002191
2022-03-15 15:02:59 r, 00.00m,0000596497Hz,0000000000c,0000000.000s, 026.1C,00002191
2022-03-15 15:12:59 r, 00.00m,0000596500Hz,0000000000c,0000000.000s, 025.4C,00002191
2022-03-15 15:22:58 r, 00.00m,0000596548Hz,0000000000c,0000000.000s, 025.1C,00002191
2022-03-15 15:33:00 r, 00.00m,0000596643Hz,0000000000c,0000000.000s, 024.1C,00002191
2022-03-15 15:42:59 r, 00.00m,0000596619Hz,0000000000c,0000000.000s, 024.4C,00002191
2022-03-15 15:52:58 r, 00.00m,0000596771Hz,0000000000c,0000000.000s, 024.1C,00002191
2022-03-15 16:03:01 r, 00.00m,0000596770Hz,0000000000c,0000000.000s, 023.8C,00002191
2022-03-15 16:12:59 r, 00.00m,0000596854Hz,0000000000c,0000000.000s, 023.5C,00002191
2022-03-15 16:22:58 r, 00.00m,0000596919Hz,0000000000c,0000000.000s, 022.8C,00002191
2022-03-15 16:33:01 r, 00.00m,0000597032Hz,0000000000c,0000000.000s, 022.5C,00002191
2022-03-15 16:42:59 r, 00.00m,0000596883Hz,0000000000c,0000000.000s, 022.5C,00002191
2022-03-15 16:52:58 r, 00.00m,0000597080Hz,0000000000c,0000000.000s, 022.2C,00002191
2022-03-15 17:02:59 r, 00.00m,0000597065Hz,0000000000c,0000000.000s, 021.5C,00002191
2022-03-15 17:13:00 r, 00.00m,0000597152Hz,0000000000c,0000000.000s, 020.9C,00002191
2022-03-15 17:22:58 r, 00.00m,0000597302Hz,0000000000c,0000000.000s, 019.9C,00002191
2022-03-15 17:33:00 r, 00.00m,0000597354Hz,0000000000c,0000000.000s, 019.3C,00002191
2022-03-15 17:42:59 r, 00.00m,0000597348Hz,0000000000c,0000000.000s, 019.0C,00002191
2022-03-15 17:52:58 r, 00.00m,0000597506Hz,0000000000c,0000000.000s, 018.3C,00002191
2022-03-15 18:02:59 r, 00.00m,0000597517Hz,0000000000c,0000000.000s, 017.7C,00002191
2022-03-15 18:13:01 r, 00.00m,0000597622Hz,0000000000c,0000000.000s, 017.7C,00002191
2022-03-15 18:22:58 r, 00.00m,0000597617Hz,0000000000c,0000000.000s, 017.4C,00002191
2022-03-15 18:32:58 r, 00.00m,0000597648Hz,0000000000c,0000000.000s, 017.0C,00002191
2022-03-15 18:42:59 r, 00.00m,0000597671Hz,0000000000c,0000000.000s, 017.0C,00002191
2022-03-15 18:52:58 r, 00.00m,0000597658Hz,0000000000c,0000000.000s, 016.4C,00002191
2022-03-15 19:02:58 r, 00.00m,0000465956Hz,0000000000c,0000000.000s, 015.7C,00002191
2022-03-15 19:12:59 r, 06.18m,0000286226Hz,0000000000c,0000000.000s, 015.4C,00002191
2022-03-15 19:22:59 r, 07.01m,0000133572Hz,0000000000c,0000000.000s, 015.1C,00002191
2022-03-15 19:32:58 r, 07.91m,0000058281Hz,0000000000c,0000000.000s, 015.1C,00002191
2022-03-15 19:43:00 r, 08.98m,0000021695Hz,0000000000c,0000000.000s, 014.8C,00002191
2022-03-15 19:52:58 r, 10.79m,0000004075Hz,0000000000c,0000000.000s, 014.8C,00002191
2022-03-15 20:02:58 r, 12.86m,0000000611Hz,0000000000c,0000000.000s, 014.5C,00002191
2022-03-15 20:13:01 r, 14.77m,0000000105Hz,0000004421c,0000000.010s, 014.8C,00002191
2022-03-15 20:22:58 r, 16.01m,0000000034Hz,0000013835c,0000000.030s, 014.8C,00002191
2022-03-15 20:32:59 r, 16.44m,0000000022Hz,0000020635c,0000000.045s, 014.8C,00002191
2022-03-15 20:43:01 r, 16.59m,0000000019Hz,0000023642c,0000000.051s, 014.8C,00002191
2022-03-15 20:52:58 r, 16.54m,0000000021Hz,0000022628c,0000000.049s, 014.8C,00002191
2022-03-15 21:02:59 r, 16.53m,0000000020Hz,0000022453c,0000000.049s, 014.8C,00002191
2022-03-15 21:12:59 r, 16.42m,0000000023Hz,0000020296c,0000000.044s, 015.1C,00002191
2022-03-15 21:23:00 r, 16.42m,0000000023Hz,0000020265c,0000000.044s, 015.1C,00002191
2022-03-15 21:32:58 r, 16.40m,0000000023Hz,0000019892c,0000000.043s, 015.1C,00002191
2022-03-15 21:43:00 r, 16.38m,0000000023Hz,0000019680c,0000000.043s, 015.1C,00002191
2022-03-15 21:52:59 r, 16.38m,0000000023Hz,0000019617c,0000000.043s, 015.1C,00002191
2022-03-15 22:02:58 r, 16.32m,0000000025Hz,0000018504c,0000000.040s, 015.1C,00002191
2022-03-15 22:13:01 r, 16.32m,0000000025Hz,0000018639c,0000000.040s, 015.1C,00002191
2022-03-15 22:22:59 r, 16.28m,0000000025Hz,0000017876c,0000000.039s, 015.1C,00002191
2022-03-15 22:32:59 r, 16.26m,0000000026Hz,0000017538c,0000000.038s, 015.1C,00002191
2022-03-15 22:43:01 r, 16.24m,0000000027Hz,0000017268c,0000000.037s, 015.1C,00002191
2022-03-15 22:52:59 r, 16.28m,0000000025Hz,0000017889c,0000000.039s, 015.1C,00002191
2022-03-15 23:02:59 r, 16.26m,0000000027Hz,0000017440c,0000000.038s, 014.8C,00002191
2022-03-15 23:12:59 r, 16.27m,0000000026Hz,0000017754c,0000000.039s, 014.8C,00002191
2022-03-15 23:23:00 r, 16.20m,0000000028Hz,0000016636c,0000000.036s, 014.8C,00002191
2022-03-15 23:32:58 r, 16.23m,0000000027Hz,0000017048c,0000000.037s, 014.8C,00002191
2022-03-15 23:43:00 r, 16.16m,0000000029Hz,0000015978c,0000000.035s, 014.8C,00002191
2022-03-15 23:52:59 r, 16.18m,0000000029Hz,0000016228c,0000000.035s, 014.8C,00002191
